Location: Poughquag
(41.6090°N, 73.6820°W)
Time: 07:53:02
(UTC-05:00)

STRAND 1 - Pass Details

Date: 07 December 2023
Orbit: 766 x 778 km, 98.4° (Epoch: 24 February)

Event Time Altitude Azimuth Distance (km) Brightness Sun altitude
Exits shadow 18:34:37 43° 21° (NNE) 1,079 ? -23.6°
Maximum altitude 18:36:21 82° 103° (ESE) 780 ? -23.9°
Drops below altitude 10° 18:41:26 10° 192° (SSW) 2,302 ? -24.9°
Sets 18:43:44 0° 193° (SSW) 3,226 ? -25.3°
